#timestamp,LO_Frequency,Hit,StdDev 
1574571615.0,286047003.4,N
1574571615.9,286047003.4,N
1574571635.8,286047003.4,N
1574571655.6,286047003.2,N
1574571675.5,286047002.9,N
1574571695.3,286047005.3,N
1574571715.1,286047003.2,N
1574571735.9,286047007.5,Y
1574571755.7,286047003.5,P
1574571775.5,286047003.5,N
1574571795.4,286047005.5,P
1574571815.2,286047006.0,Y
1574571835.1,286047001.7,P
1574571836.0,286047001.7,N
1574571855.8,286047000.2,N
1574571875.6,286046999.9,N
1574571895.5,286047000.1,N
1574571915.3,286047000.3,N
1574571935.1,286046998.3,N
1574571955.9,286046997.0,N
1574571975.7,286046999.5,N
1574571995.6,286046997.2,N
1574572015.4,286046994.9,N
1574572035.2,286046995.6,N
1574572055.1,286046997.6,N
1574572056.0,286046997.6,N
1574572075.8,286046995.0,N
1574572095.6,286046997.6,N
1574572115.5,286046997.7,N
1574572135.3,286046997.7,N
1574572155.2,286046997.8,N
1574572175.9,286046999.1,N
1574572195.7,286046998.1,N
1574572215.6,286046998.7,N
1574572235.4,286046998.5,N
1574572255.2,286046998.6,N
1574572275.1,286046998.6,N
1574572276.0,286046998.6,N
1574572295.8,286046999.1,N
1574572315.7,286046998.4,N
1574572335.5,286046998.9,N
1574572355.3,286046998.3,N
1574572375.2,286046996.5,N
1574572395.0,286046995.6,N
1574572395.9,286046995.6,Y
1574572415.7,286046997.0,P
1574572435.6,286046997.0,P
1574572455.4,286046996.6,P
1574572475.3,286046997.0,Y
1574572525.1,286047000.2,E
1574572535.0,286047000.9,N
1574572536.0,286047000.9,P
1574572555.8,286046998.6,P
1574572575.6,286046998.3,N
1574572595.5,286047000.2,N
1574572615.3,286046999.9,N
1574572635.1,286047001.2,N
1574572655.9,286046999.8,N
1574572675.7,286047000.2,N
1574572695.5,286047002.4,N
1574572715.4,286047000.4,N
1574572735.2,286047001.4,N
1574572755.1,286047001.7,N
1574572756.0,286047001.7,N
1574572775.8,286047004.2,Y
1574572795.6,286047002.0,P
1574572815.5,286047001.1,N
1574572835.3,286046998.3,N
1574572855.2,286046998.7,N
1574572875.9,286046998.7,N
1574572895.7,286047000.8,N
1574572915.6,286047001.2,N
1574572935.4,286046998.8,N
1574572955.2,286046998.4,N
1574572975.1,286047000.7,N
1574572976.0,286047000.7,N
1574572995.8,286046998.4,N
1574573015.6,286047000.1,N
1574573035.5,286047002.1,N
1574573055.3,286047000.0,N
1574573075.2,286047000.5,N
1574573095.9,286046998.4,N
1574573115.7,286046998.4,N
1574573135.6,286047000.6,N
1574573155.4,286047000.5,N
1574573175.2,286046998.4,N
1574573195.1,286046998.6,N
1574573196.0,286046998.6,N
1574573215.8,286047000.8,N
1574573235.7,286047000.1,N
1574573255.5,286047002.3,N
1574573275.3,286047002.1,N
1574573295.2,286047001.4,N
1574573315.0,286047001.7,N
1574573315.9,286047001.7,N
1574573335.7,286047002.6,N
1574573355.6,286047002.4,N
1574573375.4,286047002.6,N
1574573395.3,286046999.8,N
1574573415.1,286047002.2,N
1574573416.0,286047002.2,N
1574573435.8,286047000.1,N
1574573455.7,286047000.1,N
1574573475.5,286047002.8,N
1574573495.3,286047004.0,N
1574573515.2,286047003.4,N
1574573535.0,286047004.3,N
1574573535.9,286047004.3,N
1574573555.8,286047001.9,N
1574573575.6,286047002.6,N
1574573595.4,286046999.8,N
1574573615.3,286046999.7,N
1574573635.1,286047001.1,N
1574573655.9,286047001.2,N
1574573675.7,286047000.5,N
1574573695.5,286046998.7,N
1574573715.4,286047000.9,N
1574573735.2,286047002.8,N
1574573755.0,286047002.0,N
1574573755.9,286047002.0,N
1574573775.8,286047002.3,N
1574573795.6,286047002.8,N
1574573815.5,286047002.8,N
1574573835.3,286046999.9,N
1574573855.1,286047000.1,N
1574573875.9,286046999.8,N
1574573895.7,286047001.6,N
1574573915.5,286047001.4,N
1574573935.4,286047002.0,N
1574573955.2,286047002.1,N
1574573975.1,286047003.8,N
1574573976.0,286047003.8,N
1574573995.8,286047003.9,N
1574574015.6,286047003.9,N
1574574035.5,286047002.0,N
1574574055.3,286047000.2,N
1574574075.1,286047002.1,N
1574574095.9,286047000.4,N
1574574115.7,286046999.8,N
1574574135.6,286046999.9,N
1574574155.4,286047000.8,N
1574574175.2,286047002.2,N
1574574195.1,286047000.4,N
1574574196.0,286047000.4,N
1574574215.8,286047000.7,N
1574574235.6,286046998.3,N
1574574255.5,286047001.1,N
1574574275.3,286047001.2,N
1574574295.2,286046999.9,N
1574574315.9,286047002.4,N
1574574335.7,286047004.0,N
1574574355.6,286047004.4,N
1574574375.4,286047003.6,N
1574574395.3,286047003.7,N
1574574415.1,286047003.6,N
1574574416.0,286047003.6,N
1574574435.8,286047004.0,N
1574574455.7,286047003.8,N
1574574475.5,286047001.9,N
1574574495.3,286047002.0,N
1574574515.2,286047004.3,N
1574574535.0,286047002.1,N
1574574535.9,286047002.1,N
1574574555.8,286047002.1,N
1574574575.6,286047002.2,N
1574574595.4,286047002.8,N
1574574615.3,286047000.3,N
1574574635.1,286047001.2,N
1574574655.9,286047001.1,N
1574574675.7,286046998.6,N
1574574695.5,286046999.8,N
1574574715.4,286046998.2,N
1574574735.2,286047000.9,N
1574574755.0,286046998.4,N
1574574756.0,286046998.4,N
1574574775.8,286046998.6,N
1574574795.6,286046998.4,N
1574574815.5,286046999.3,N
1574574835.3,286046999.0,N
1574574855.1,286047000.5,N
1574574875.9,286047001.6,N
1574574895.7,286046999.8,N
1574574915.6,286047002.4,N
1574574935.4,286047002.2,N
1574574955.2,286047002.7,N
1574574975.1,286047002.4,N
1574574976.0,286047002.4,N
1574574995.8,286047002.2,N
1574575015.7,286047001.6,N
1574575035.5,286047003.5,N
1574575055.3,286047003.8,N
1574575075.2,286047004.3,N
1574575095.9,286047004.0,N
1574575115.7,286047004.3,N
1574575135.6,286047004.2,N
1574575155.4,286047001.8,N
1574575175.3,286047003.5,N
1574575195.1,286047002.9,N
1574575196.0,286047002.9,N
